This is the latest recevied weather packets stored in our database for station/object KC0AFB. If no packets are shown the sender has not sent any weather packets the latest 10 day(s).
| Time | Temp. | Humidity | Pressure | Rain* | Wind** | Luminosity | Snow |
|---|---|---|---|---|---|---|---|
| 1777770935 | 17.22° C | 44% | 1010.9 hPa | 0 mm | - | 27 W/m² | - |
| 1777770633 | 17.22° C | 44% | 1011.1 hPa | 0 mm | - | 36 W/m² | - |
| 1777770329 | 17.78° C | 43% | 1011.1 hPa | 0 mm | - | 41 W/m² | - |
| 1777770027 | 17.78° C | 42% | 1010.9 hPa | 0 mm | - | 49 W/m² | - |
| 1777769723 | 17.78° C | 42% | 1010.8 hPa | 0 mm | - | 47 W/m² | - |
| 1777769421 | 17.78° C | 42% | 1010.7 hPa | 0 mm | - | 55 W/m² | - |
| 1777769117 | 18.33° C | 41% | 1010.8 hPa | 0 mm | - | 52 W/m² | - |
| 1777768815 | 18.33° C | 41% | 1010.6 hPa | 0 mm | - | 61 W/m² | - |
| 1777768511 | 18.33° C | 41% | 1010.6 hPa | 0 mm | - | 77 W/m² | - |
| 1777768209 | 18.89° C | 40% | 1010.3 hPa | 0 mm | - | 72 W/m² | - |
| 1777767906 | 18.89° C | 40% | 1010.5 hPa | 0 mm | - | 110 W/m² | - |
| 1777767602 | 18.33° C | 40% | 1010.7 hPa | 0 mm | - | 74 W/m² | - |
| 1777767299 | 18.89° C | 40% | 1010.5 hPa | 0 mm | - | 113 W/m² | - |
| 1777766996 | 18.33° C | 39% | 1010.5 hPa | 0 mm | - | 94 W/m² | - |
| 1777766694 | 18.89° C | 39% | 1010.6 hPa | 0 mm | - | 58 W/m² | - |
| 1777766390 | 19.44° C | 39% | 1010.6 hPa | 0 mm | - | 137 W/m² | - |
| 1777766087 | 19.44° C | 39% | 1010.8 hPa | 0 mm | - | 160 W/m² | - |
| 1777765785 | 19.44° C | 39% | 1010.6 hPa | 0 mm | - | 171 W/m² | - |
| 1777765481 | 20° C | 39% | 1010.6 hPa | 0 mm | - | 194 W/m² | - |
| 1777765178 | 20° C | 38% | 1010.5 hPa | 0 mm | - | 214 W/m² | - |
| 1777764873 | 20° C | 38% | 1010.7 hPa | 0 mm | - | 236 W/m² | - |
| 1777764571 | 20° C | 39% | 1010.3 hPa | 0 mm | - | 270 W/m² | - |
| 1777764267 | 20° C | 38% | 1010.4 hPa | 0 mm | - | 292 W/m² | - |
| 1777763964 | 20° C | 38% | 1010.3 hPa | 0 mm | - | 297 W/m² | - |
| 1777763661 | 20° C | 38% | 1010.2 hPa | 0 mm | - | 320 W/m² | - |
* Rain latest hour (hover to see other rain measurements)
** Current wind speed in m/s (hover to see current wind gust speed)